This is the latest recevied weather packets stored in our database for station/object ke5jzm-1. If no packets are shown the sender has not sent any weather packets the latest 10 day(s).
| Time | Temp. | Humidity | Pressure | Rain* | Wind** | Luminosity | Snow |
|---|---|---|---|---|---|---|---|
| 1778276153 | 24.44° C | 62% | 1011.8 hPa | 0 mm | - | 22 W/m² | - |
| 1778276093 | 24.44° C | 62% | 1011.7 hPa | 0 mm | - | 22 W/m² | - |
| 1778276033 | 24.44° C | 62% | 1011.7 hPa | 0 mm | - | 22 W/m² | - |
| 1778275973 | 24.44° C | 62% | 1011.6 hPa | 0.25 mm | - | 23 W/m² | - |
| 1778275913 | 24.44° C | 62% | 1011.6 hPa | 0.51 mm | - | 25 W/m² | - |
| 1778275853 | 24.44° C | 62% | 1011.6 hPa | 0.76 mm | - | 27 W/m² | - |
| 1778275794 | 24.44° C | 62% | 1011.6 hPa | 1.52 mm | - | 31 W/m² | - |
| 1778275733 | 24.44° C | 62% | 1011.5 hPa | 2.29 mm | - | 35 W/m² | - |
| 1778275673 | 24.44° C | 62% | 1011.6 hPa | 3.81 mm | - | 38 W/m² | - |
| 1778275612 | 24.44° C | 62% | 1011.6 hPa | 4.57 mm | - | 41 W/m² | - |
| 1778275553 | 24.44° C | 62% | 1011.6 hPa | 4.83 mm | - | 43 W/m² | - |
| 1778275494 | 24.44° C | 62% | 1011.6 hPa | 4.83 mm | - | 44 W/m² | - |
| 1778275433 | 24.44° C | 62% | 1011.6 hPa | 4.83 mm | - | 47 W/m² | - |
| 1778275374 | 24.44° C | 61% | 1011.6 hPa | 4.83 mm | - | 50 W/m² | - |
| 1778275313 | 24.44° C | 61% | 1011.6 hPa | 4.83 mm | - | 54 W/m² | - |
| 1778275253 | 24.44° C | 62% | 1011.6 hPa | 4.83 mm | - | 58 W/m² | - |
| 1778275193 | 24.44° C | 61% | 1011.7 hPa | 4.83 mm | - | 61 W/m² | - |
| 1778275134 | 24.44° C | 62% | 1011.7 hPa | 4.83 mm | - | 64 W/m² | - |
| 1778275074 | 24.44° C | 61% | 1011.7 hPa | 4.83 mm | - | 65 W/m² | - |
| 1778275013 | 24.44° C | 61% | 1011.7 hPa | 4.83 mm | - | 60 W/m² | - |
| 1778274953 | 24.44° C | 61% | 1011.7 hPa | 4.83 mm | - | 60 W/m² | - |
| 1778274893 | 24.44° C | 61% | 1011.6 hPa | 4.83 mm | - | 61 W/m² | - |
| 1778274834 | 24.44° C | 61% | 1011.7 hPa | 4.83 mm | - | 54 W/m² | - |
| 1778274773 | 24.44° C | 61% | 1011.7 hPa | 4.83 mm | - | 50 W/m² | - |
| 1778274713 | 24.44° C | 61% | 1011.7 hPa | 4.83 mm | - | 60 W/m² | - |
* Rain latest hour (hover to see other rain measurements)
** Current wind speed in m/s (hover to see current wind gust speed)